Regional Weather Roundup
Issued by NWS Charleston, SC

Current Version | Previous Version | Graphics & Text | Print | Product List | Glossary On
Versions: 1 2 3 4 5 6 7 8 9 10 11 12 13 14 15 16 17 18 19 20 21 22 23 24 25 26 27 28 29 30 31 32 33 34 35 36 37 38 39 40 41 42 43 44 45 46 47 48 49 50
000
ASUS42 KCHS 190110
RWRCHS

REGIONAL WEATHER ROUNDUP
NATIONAL WEATHER SERVICE CHARLESTON SC
800 PM EST THU DEC 18 2014

NOTE: "FAIR" INDICATES FEW OR NO CLOUDS BELOW 12,000 FEET WITH NO
SIGNIFICANT WEATHER AND/OR OBSTRUCTIONS TO VISIBILITY.

NOT ALL STATIONS ARE QUALITY CONTROLLED BY THE NATIONAL
WEATHER SERVICE. USE DATA WITH CAUTION...ESPECIALLY
DEWPOINT OBSERVATIONS.

SCZ027-030-031-034>040-042>050-190200-
...SOUTHEAST SOUTH CAROLINA...

CITY           SKY/WX    TMP DP  RH WIND       PRES   REMARKS
N CHARLESTON   CLEAR     50  44  80 CALM      30.11R
WATERFRONT PRK   N/A     52 N/A N/A N3          N/A
MOUNT PLEASANT FAIR      45  45 100 CALM      30.11R
PINOPOLIS        N/A     54  45  71 CALM      30.01R
MONCKS CORNER  FAIR      46  43  87 CALM      30.10S
SUMMERVILLE    NOT AVBL
BEAUFORT MCAS  PTCLDY    52  47  83 CALM      30.11R
BEAUFORT ARPT  FAIR      48  46  93 CALM      30.09F
HILTON HEAD IS CLEAR     46  46 100 S3        30.12S
WALTERBORO     PTCLDY    48  45  87 CALM      30.10S
ALLENDALE      FAIR      48  43  81 CALM      30.09S

...SOUTHERN MIDLANDS AND PEE DEE...

CITY           SKY/WX    TMP DP  RH WIND       PRES   REMARKS
GEORGETOWN     NOT AVBL
KINGSTREE      NOT AVBL
ORANGEBURG     CLEAR     47  39  74 CALM      30.10R
BARNWELL         N/A     45  43  93 CALM      30.10S
AIKEN          FAIR      45  41  87 CALM      30.12S
MANNING        NOT AVBL
COLUMBIA       PTCLDY    44  38  79 W3        30.09R
SUMTER         CLEAR     43  36  76 CALM      30.08S
FLORENCE       CLEAR     45  36  70 CALM      30.09F
MYRTLE BEACH   CLEAR     45  37  76 CALM      30.12R
N MYRTLE BEACH CLEAR     41  38  89 CALM      30.10S

$$

GAZ063-065-086>088-099>101-113>116-118-119-134>141-150-190200-
...SOUTHEAST GEORGIA...

CITY           SKY/WX    TMP DP  RH WIND       PRES   REMARKS
SAVANNAH ARPT  PTCLDY    49  39  68 CALM      30.12R
HUNTER AAF     CLEAR     49  44  84 SW2       30.09R
FORT STEWART   CLEAR     45  40  83 CALM      30.10R
STATESBORO     PTCLDY    44  44 100 CALM      30.11R
SYLVANIA       PTCLDY    46  44  93 CALM      30.11S
CLAXTON        FAIR      45  43  93 CALM      30.12R

...CSRA...CENTRAL AND FAR SOUTHEAST GEORGIA...

CITY           SKY/WX    TMP DP  RH WIND       PRES   REMARKS
THOMSON        CLOUDY    47  45  91 CALM      30.15R
AUGUSTA-BUSH   CLEAR     44  39  82 CALM      30.10R
AUGUSTA-DANIEL CLEAR     54  40  59 NW3       30.10R
SWAINSBORO     MOCLDY    50  45  81 CALM      30.12R
VIDALIA        CLEAR     48  43  81 CALM      30.12R
EASTMAN        FAIR      47  41  78 CALM      30.14S
HAZLEHURST     FAIR      50  42  76 CALM      30.10S
ALMA           CLEAR     45  40  82 CALM      30.11R
WAYCROSS       PTCLDY    50  45  81 CALM      30.11F
JESUP          FAIR      48  45  87 CALM      30.12R
BAXLEY         FAIR      46  43  87 CALM      30.11R
BRUNSWICK      PTCLDY    50  45  81 CALM      30.13R
SAINT SIMONS   PTCLDY    53  43  68 W6        30.12R

$$

SCZ027-028-034-036>038-045-046-048>050-GAZ119-141-190200-
...LAKE AND SUPPLEMENTAL COASTAL OBSERVATIONS...

STATION/POSITION TIME  TEMP    WIND        PRES    WAVE   SWELL
                       AIR SEA DIR/SP/G            HT/PER HT/PER/DIR
                 (UTC) (F)     (DEG/KT/KT) (MB)    (FT/S) (FT/S/D)
UPR LAKE MARION  NOT AVBL
WINYAH BAY       0000   46     320/  2     1018.0S
LAKE MURRAY      0000   50        CALM     1018.3R
ACE BASIN NERRS  0000   48        CALM     1018.0S
FORT PULASKI     0100   52 57  190/  2/  3 1019.9R
SAPELO ISLAND    0000   49        CALM     1019.0S

$$

ANZ835-935-AMZ111-154-330-350-352-354-370-450-454-472-190200-
...C-MAN AND BUOY OBSERVATIONS...

STATION/POSITION TIME  TEMP    WIND        PRES    WAVE   SWELL
                       AIR SEA DIR/SP/G            HT/PER HT/PER/DIR
                 (UTC) (F)     (DEG/KT/KT) (MB)    (FT/S) (FT/S/D)
BUOY 41004       0100   61 72  300/  2/  6 1018.5R   2/ 5   2/ 5
BUOY 41008       0100   58 58  240/  4/  6 1019.3R   1/10
FOLLY BEACH CMAN 0000   55      90/  3/  3 1019.3R
CAPERS NEARSHORE 0000   55      80/  6/  8   N/A
FRIPP NEARSHORE  NOT AVBL


STATION/POSITION TIME  TEMP    WIND        PRES    WAVE   SWELL
                       AIR SEA DIR/SP/G            HT/PER HT/PER/DIR
                 (UTC) (F)     (DEG/KT/KT) (MB)    (FT/S) (FT/S/D)
5E ST. MARYS GA  0100      61                N/A     1/11
FRYING PAN BUOY  0100   57 65   50/  6/  8 1019.3R   2/10   2/130/10
BUOY 41025       0100   47                 1020.2R   3/ 7
CAPE LOOKOUT NC  0000   48      20/  5/  6 1019.4R
BUOY 41002       0019   68 72  360/  2/  4 1018.5    3/ 6   3/230/ 6
BUOY 41010       0100   70 76  320/  6/ 10 1019.0F   2/10   2/ 80/10
ST AUGUSTINE FL  0100   57     280/  5/  5 1020.3S


$$


USA.gov is the U.S. government's official web portal to all federal, state and local government web resources and services.